This is the latest recevied weather packets stored in our database for station/object GJ7DNI-13. If no packets are shown the sender has not sent any weather packets the latest 10 day(s).
| Time | Temp. | Humidity | Pressure | Rain* | Wind** | Luminosity | Snow |
|---|---|---|---|---|---|---|---|
| 1777910098 | 16.11° C | 70% | 1011.6 hPa | 0 mm | - | 450 W/m² | - |
| 1777909798 | 16.11° C | 69% | 1011.5 hPa | 0 mm | - | 334 W/m² | - |
| 1777909498 | 16.11° C | 70% | 1011.6 hPa | 0 mm | - | 320 W/m² | - |
| 1777909198 | 16.11° C | 68% | 1011.6 hPa | 0 mm | - | 343 W/m² | - |
| 1777908898 | 16.11° C | 71% | 1011.6 hPa | 0 mm | - | 626 W/m² | - |
| 1777908598 | 15° C | 72% | 1011.7 hPa | 0 mm | - | 353 W/m² | - |
| 1777908298 | 15° C | 71% | 1011.7 hPa | 0 mm | - | 281 W/m² | - |
| 1777907998 | 15.56° C | 71% | 1011.7 hPa | 0 mm | - | 304 W/m² | - |
| 1777907698 | 15.56° C | 70% | 1011.7 hPa | 0 mm | - | 374 W/m² | - |
| 1777907398 | 15.56° C | 70% | 1011.7 hPa | 0 mm | - | 512 W/m² | - |
| 1777907099 | 15.56° C | 71% | 1011.7 hPa | 0 mm | - | 439 W/m² | - |
| 1777906798 | 15° C | 73% | 1011.6 hPa | 0 mm | - | 362 W/m² | - |
| 1777906498 | 14.44° C | 73% | 1011.7 hPa | 0 mm | - | 332 W/m² | - |
| 1777906198 | 15° C | 73% | 1011.7 hPa | 0 mm | - | 318 W/m² | - |
| 1777905899 | 15° C | 72% | 1011.8 hPa | 0 mm | - | 297 W/m² | - |
| 1777905599 | 15° C | 73% | 1011.8 hPa | 0 mm | - | 285 W/m² | - |
| 1777905298 | 15° C | 74% | 1011.8 hPa | 0 mm | - | 264 W/m² | - |
| 1777904999 | 14.44° C | 73% | 1011.8 hPa | 0 mm | - | 257 W/m² | - |
| 1777904698 | 15° C | 73% | 1011.9 hPa | 0 mm | - | 262 W/m² | - |
| 1777904399 | 15° C | 73% | 1012 hPa | 0 mm | - | 276 W/m² | - |
| 1777904099 | 15° C | 73% | 1012 hPa | 0 mm | - | 285 W/m² | - |
| 1777903799 | 15.56° C | 72% | 1012 hPa | 0 mm | - | 295 W/m² | - |
| 1777903499 | 16.11° C | 70% | 1011.9 hPa | 0 mm | - | 302 W/m² | - |
| 1777903199 | 16.67° C | 69% | 1011.9 hPa | 0 mm | - | 320 W/m² | - |
| 1777902899 | 16.67° C | 69% | 1011.9 hPa | 0 mm | - | 311 W/m² | - |
* Rain latest hour (hover to see other rain measurements)
** Current wind speed in m/s (hover to see current wind gust speed)